Simultaneous Nadir Overpasses (SNOs) Predictions

Prediction of SNOs between AQUA and NOAA-19 Satellite Orbit:

Table of predicted SNOs for the next 14.0 days since TLE Epoch: 1/11/2019
Index Date (AQUA) Time (AQUA) Lat,Lon (AQUA) SZA (AQUA ) Date (NOAA-19) Time (NOAA-19) Lat,Lon (NOAA-19) SZA (NOAA-19 ) Distance(km) Time Diff (sec)
1 01/13/2019 01:45:16 80.58, 117.57 104.01 01/13/2019 01:44:24 80.58, 117.54 104.03 0.72 52
2 01/13/2019 02:34:42 -80.59, -74.88 75.99 01/13/2019 02:35:23 -80.60, -74.80 76.01 1.63 41
3 01/15/2019 07:18:59 -80.57,-145.77 76.38 01/15/2019 07:17:54 -80.57,-145.94 76.34 3.22 65
4 01/15/2019 08:08:27 80.60, 21.64 103.66 01/15/2019 08:08:53 80.59, 21.71 103.63 1.37 26
5 01/17/2019 13:42:10 -80.59, 118.31 76.77 01/17/2019 13:42:23 -80.59, 118.44 76.78 2.32 13
6 01/19/2019 19:15:55 80.60,-145.26 102.82 01/19/2019 19:15:52 80.58,-145.17 102.80 2.98 3
7 01/22/2019 00:49:38 -80.59, -48.57 77.67 01/22/2019 00:49:23 -80.58, -48.39 77.69 3.46 15
8 01/22/2019 01:39:07 80.65, 118.41 102.44 01/22/2019 01:40:13 80.69, 121.82 102.12 61.59 66
9 01/24/2019 06:23:22 80.58, 48.07 101.82 01/24/2019 06:22:50 80.58, 48.26 101.81 3.41 32




NCC Satellite Simultaneous Nadir Overpasses (SNOs) Prediction Service
